TIANMU-1 15

Last updated on Tue Jan 14 2025 00:02:18 GMT+0000 (Coordinated Universal Time)

1 58700U 24004A 25013.54873190 .00006816 00000+0 32520-3 0 9993 2 58700 97.4592 197.4556 0008869 38.1094 322.0766 15.19360900 56664
UTC large
Height (km)
Speed (km/s)
/
Latitude / Longitude
Inclination (degrees)
Orbital Period (minutes)
Azimuth
Elevation
Range (km)
Doppler Factor

Next 0 passes for location: London (51.5072 / 0.1276)

Sorry there are no passes over London.